Dewpoint
-15 -15 -16 -17 -17 -19 -20 -21 -22 -22 -23 -23 -23 -23 -23 -21 -24 -23 -23 -22 -22 -22 -20 -17 -18 -18 -20 -17 -18 -19 -18 -19 -18 -19 -18 -18 -17 -18 -16 -13 -11 -10 -9 -9 -7 -6 -2 -3 -2 -3 -3 -2 -0 -0 -1 -0 -1 0 1 2 2 3 2 0 -2 -3 -3 -4 -4 -3 -1 -0 -0 1 2 2 1 -2 4 -1 -1 -1 -1 -0 -1
-17 -17 -17 -18 -19 -21 -22 -23 -23 -24 -24 -24 -24 -25 -25 -24 -23 -23 -24 -22 -22 -21 -19 -18 -19 -19 -19 -18 -19 -19 -18 -18 -19 -18 -18 -18 -19 -19 -16 -13 -12 -11 -9 -8 -7 -6 -4 -3 -2 -1 -2 -1 -1 -1 -0 -1 -1 -1 -2 -1 -2 -1 -1 -2 -2 -2 -2 -2 -2 -3 -4 -4 -4 -3 -1 -0 1 1 -1 -2 -3 -3 -2 -1 0
-18 -19 -20 -21 -21 -22 -23 -25 -25 -25 -25 -25 -26 -26 -26 -24 -22 -23 -24 -23 -22 -20 -19 -20 -19 -19 -19 -18 -19 -19 -19 -19 -19 -18 -18 -19 -19 -17 -14 -12 -11 -9 -8 -7 -6 -5 -3 -2 -2 -2 -3 -5 -4 -3 -4 -4 -5 -4 -4 -4 -4 -4 -3 -3 -4 -4 -4 -5 -6 -7 -7 -7 -6 -5 -5 -3 -0 -0 -0 -0 0 -1 0 1 2
-19 -20 -21 -21 -22 -23 -23 -25 -26 -26 -26 -26 -27 -26 -26 -25 -21 -22 -24 -22 -21 -19 -20 -20 -18 -19 -19 -20 -20 -20 -20 -20 -20 -19 -19 -19 -17 -14 -13 -10 -9 -8 -7 -5 -4 -4 -4 -6 -6 -6 -6 -7 -7 -6 -7 -6 -6 -6 -7 -6 -5 -5 -5 -4 -4 -5 -5 -6 -6 -7 -7 -7 -7 -7 -7 -5 -2 -1 -0 1 2 2 0 -1 -2
-19 -20 -21 -22 -23 -23 -24 -25 -26 -26 -26 -27 -27 -26 -25 -25 -23 -23 -23 -21 -20 -21 -20 -19 -18 -20 -21 -22 -22 -21 -21 -20 -20 -19 -18 -17 -16 -13 -11 -10 -9 -7 -5 -7 -6 -7 -7 -8 -8 -8 -8 -9 -9 -8 -8 -9 -9 -8 -8 -8 -7 -7 -7 -7 -6 -6 -6 -7 -7 -7 -8 -9 -9 -8 -8 -8 -6 -3 -2 -1 -1 -1 -1 -3 -4
-20 -21 -22 -22 -23 -25 -25 -26 -27 -26 -26 -27 -27 -26 -25 -25 -24 -23 -22 -21 -20 -21 -20 -19 -19 -22 -22 -22 -22 -22 -21 -21 -19 -18 -18 -16 -14 -12 -10 -9 -7 -6 -9 -10 -10 -9 -10 -11 -11 -10 -11 -10 -10 -10 -10 -11 -11 -11 -10 -10 -9 -9 -9 -8 -7 -7 -7 -8 -8 -8 -8 -9 -10 -10 -10 -10 -10 -7 -6 -4 -3 -1 -0 0 0
-21 -21 -22 -22 -23 -25 -26 -27 -27 -27 -27 -27 -26 -25 -25 -24 -24 -22 -21 -21 -20 -21 -20 -21 -21 -22 -22 -22 -22 -22 -21 -19 -18 -18 -17 -16 -13 -12 -10 -7 -9 -10 -12 -12 -11 -11 -11 -12 -12 -11 -12 -12 -12 -13 -12 -13 -12 -12 -11 -11 -10 -10 -9 -9 -9 -9 -9 -10 -10 -9 -10 -10 -11 -12 -11 -11 -10 -9 -7 -7 -7 -4 -3 -4 -4
-21 -21 -22 -23 -24 -24 -26 -27 -27 -25 -26 -27 -26 -25 -24 -24 -23 -22 -21 -21 -21 -21 -21 -21 -23 -22 -21 -22 -23 -21 -19 -18 -18 -17 -16 -14 -12 -9 -7 -11 -13 -14 -14 -14 -13 -13 -14 -14 -14 -13 -13 -13 -14 -14 -14 -14 -12 -13 -11 -11 -10 -11 -11 -11 -11 -11 -11 -12 -11 -11 -11 -11 -12 -12 -11 -11 -11 -10 -8 -8 -8 -8 -6 -5 -4
-23 -23 -23 -24 -25 -26 -27 -27 -27 -27 -26 -26 -25 -25 -24 -24 -22 -21 -22 -23 -21 -21 -22 -22 -21 -20 -20 -21 -21 -20 -20 -20 -19 -17 -14 -10 -4 -10 -12 -15 -16 -16 -16 -15 -15 -15 -16 -15 -16 -15 -13 -12 -12 -12 -12 -11 -12 -13 -12 -11 -12 -12 -13 -13 -13 -13 -13 -13 -13 -12 -12 -12 -12 -11 -12 -12 -11 -11 -9 -8 -8 -7 -7 -7 -6
-24 -25 -25 -26 -28 -28 -27 -27 -27 -28 -27 -27 -26 -25 -25 -23 -21 -21 -22 -22 -20 -19 -21 -21 -21 -21 -22 -22 -22 -22 -21 -22 -19 -10 -3 -2 -8 -11 -14 -16 -18 -19 -17 -17 -18 -17 -18 -18 -15 -16 -15 -14 -13 -13 -12 -12 -11 -12 -13 -13 -15 -16 -16 -15 -15 -14 -14 -14 -14 -13 -13 -13 -13 -12 -12 -12 -12 -12 -12 -11 -10 -10 -9 -9 -8
-26 -26 -26 -28 -29 -29 -29 -29 -28 -28 -28 -27 -26 -24 -26 -21 -22 -22 -21 -23 -22 -21 -22 -22 -23 -22 -23 -23 -23 -23 -22 -21 -14 2 3 3 -10 -14 -17 -19 -21 -19 -19 -20 -20 -17 -18 -19 -19 -17 -16 -13 -14 -13 -13 -13 -13 -13 -14 -14 -14 -15 -16 -16 -16 -16 -15 -16 -15 -14 -14 -15 -14 -12 -11 -10 -11 -12 -12 -10 -10 -9 -10 -11 -12
-27 -27 -27 -28 -29 -30 -30 -29 -29 -28 -28 -28 -27 -26 -25 -24 -23 -24 -22 -24 -23 -23 -23 -23 -24 -23 -23 -24 -24 -23 -24 -21 -1 2 3 3 -5 -16 -19 -24 -23 -20 -20 -20 -20 -19 -20 -20 -19 -19 -18 -16 -15 -17 -16 -15 -16 -15 -15 -15 -14 -13 -13 -16 -18 -18 -18 -17 -17 -16 -15 -15 -14 -12 -11 -10 -10 -9 -9 -9 -9 -10 -10 -10 -9
-27 -29 -29 -29 -30 -30 -30 -30 -29 -30 -29 -28 -28 -26 -24 -25 -24 -24 -23 -24 -24 -24 -24 -25 -25 -24 -24 -24 -24 -23 -25 -22 -2 2 2 2 2 -14 -20 -27 -24 -25 -21 -19 -21 -21 -21 -20 -19 -18 -18 -15 -15 -19 -21 -21 -16 -16 -15 -14 -15 -16 -15 -14 -13 -15 -16 -17 -17 -17 -16 -15 -14 -13 -11 -11 -9 -9 -8 -9 -8 -8 -7 -8 -9
-28 -29 -30 -30 -30 -30 -30 -30 -29 -29 -29 -28 -26 -25 -26 -25 -25 -25 -23 -24 -25 -25 -25 -25 -24 -26 -25 -26 -25 -25 -25 -22 -1 1 0 2 1 -6 -26 -27 -27 -26 -21 -22 -23 -21 -21 -20 -18 -18 -19 -19 -19 -20 -21 -22 -20 -19 -18 -19 -20 -18 -16 -15 -15 -14 -14 -16 -17 -18 -17 -14 -14 -12 -10 -8 -8 -14 -11 -8 -8 -9 -10 -11 -9
-27 -29 -30 -30 -30 -29 -30 -29 -29 -29 -30 -29 -29 -29 -27 -26 -27 -24 -23 -26 -24 -25 -25 -26 -26 -26 -27 -26 -26 -26 -25 -18 -2 -1 -0 1 2 -7 -27 -26 -26 -23 -22 -24 -22 -22 -21 -20 -20 -20 -20 -21 -19 -18 -20 -20 -18 -18 -19 -20 -20 -19 -18 -18 -18 -18 -17 -16 -16 -15 -13 -12 -11 -10 -8 -6 -4 -5 -5 -9 -10 -12 -11 -11 -12
-28 -29 -29 -30 -30 -30 -30 -29 -29 -30 -29 -29 -28 -30 -28 -26 -27 -25 -25 -25 -26 -25 -27 -27 -28 -29 -26 -28 -28 -27 -25 -10 -3 -1 -0 -0 -2 -22 -27 -27 -26 -21 -23 -24 -23 -20 -20 -20 -21 -21 -21 -21 -18 -18 -17 -15 -15 -18 -20 -21 -20 -19 -19 -16 -2 -12 -16 -11 -10 -9 -8 -7 -1 -6 -4 -4 -4 -3 -9 -10 -14 -14 -17 -19 -19
-30 -29 -31 -30 -30 -30 -29 -28 -27 -27 -28 -28 -27 -29 -29 -27 -27 -25 -28 -25 -26 -27 -29 -29 -28 -29 -27 -28 -28 -27 -25 -23 -5 -2 -0 1 -7 -24 -26 -26 -25 -22 -24 -24 -22 -21 -22 -21 -21 -21 -21 -22 -18 -16 -9 -13 -15 -18 -20 -21 -20 -20 -19 -18 -5 1 3 3 -0 1 3 3 3 6 5 5 -3 -5 -14 -16 -19 -16 -21 -20 -19
-30 -30 -31 -31 -29 -28 -28 -27 -28 -28 -28 -29 -28 -29 -28 -26 -28 -26 -28 -28 -27 -28 -29 -28 -27 -26 -27 -28 -26 -26 -26 -24 -20 -4 -1 -1 -12 -22 -26 -27 -29 -24 -23 -24 -22 -21 -21 -20 -20 -21 -22 -21 -18 -15 -0 -13 -17 -18 -19 -21 -21 -20 -19 -18 -15 -13 -1 0 2 2 3 3 1 0 1 1 1 -8 -19 -24 -20 -20 -22 -21 -22
-30 -29 -30 -29 -28 -26 -28 -30 -29 -30 -29 -30 -29 -29 -28 -27 -28 -28 -28 -28 -28 -28 -26 -27 -27 -26 -26 -27 -25 -25 -27 -25 -23 -5 -1 0 -11 -22 -25 -30 -29 -25 -24 -23 -24 -22 -23 -22 -21 -20 -20 -18 -17 -6 -11 -17 -17 -18 -19 -20 -21 -22 -19 -16 -17 -18 -18 -18 -18 -17 -16 -14 -14 -16 -14 -13 -10 -10 -18 -21 -22 -23 -22 -22 -22
-27 -28 -28 -28 -28 -26 -27 -30 -31 -30 -28 -31 -30 -30 -28 -28 -28 -29 -28 -27 -28 -27 -27 -27 -29 -27 -25 -27 -26 -27 -27 -26 -23 -6 -2 -2 -2 -15 -25 -29 -29 -28 -26 -24 -24 -26 -24 -24 -21 -20 -19 -19 -10 -1 -10 -14 -19 -17 -18 -20 -22 -22 -17 -16 -17 -17 -19 -19 -20 -19 -18 -17 -17 -17 -18 -18 -15 -13 -15 -20 -22 -24 -25 -23 -23
-29 -29 -28 -30 -30 -30 -28 -30 -32 -31 -31 -30 -28 -30 -29 -27 -27 -29 -29 -28 -29 -29 -29 -29 -29 -27 -26 -26 -26 -26 -26 -26 -24 -22 -5 -2 -1 -12 -21 -26 -29 -25 -26 -25 -26 -26 -24 -24 -24 -21 -20 -19 -18 -7 -8 -11 -12 -16 -21 -22 -21 -16 -13 -18 -19 -18 -21 -20 -20 -20 -19 -19 -19 -18 -18 -18 -17 -19 -18 -19 -23 -25 -25 -25 -26
-28 -29 -29 -29 -30 -31 -31 -32 -32 -31 -32 -30 -31 -30 -29 -29 -30 -30 -29 -30 -30 -30 -30 -27 -28 -27 -27 -26 -27 -27 -24 -25 -27 -23 -22 -5 -3 -7 -17 -23 -19 -23 -25 -27 -26 -25 -25 -24 -24 -21 -20 -19 -18 -5 -5 -5 -13 -18 -19 -10 -10 -14 -18 -18 -20 -21 -22 -22 -22 -22 -22 -22 -21 -20 -19 -19 -20 -18 -24 -22 -22 -22 -22 -23 -24
-30 -29 -29 -30 -31 -32 -32 -33 -33 -31 -31 -30 -31 -32 -30 -30 -31 -29 -30 -32 -31 -32 -32 -30 -32 -31 -30 -29 -28 -28 -28 -27 -24 -23 -21 -17 -5 -3 -13 -17 -18 -20 -26 -26 -26 -25 -24 -24 -23 -21 -19 -17 -18 -8 -16 -17 -18 -15 -3 -9 -17 -17 -18 -20 -20 -23 -24 -24 -24 -25 -24 -24 -24 -24 -23 -23 -22 -22 -22 -22 -23 -23 -22 -21 -21
-29 -29 -29 -32 -31 -30 -32 -34 -31 -31 -31 -30 -30 -32 -32 -32 -31 -29 -31 -32 -32 -32 -31 -31 -32 -32 -31 -28 -27 -27 -28 -28 -22 -24 -23 -21 -21 -4 -5 -18 -19 -22 -22 -25 -24 -23 -23 -24 -22 -19 -18 -9 -2 -2 -15 -18 -19 -15 -18 -18 -19 -19 -20 -21 -23 -24 -23 -25 -25 -26 -26 -25 -25 -25 -24 -23 -22 -23 -22 -23 -23 -23 -23 -22 -21
-30 -30 -31 -32 -31 -32 -35 -33 -34 -32 -31 -30 -32 -31 -32 -32 -32 -29 -30 -32 -33 -33 -31 -30 -32 -31 -31 -30 -29 -28 -27 -26 -27 -23 -23 -23 -22 -20 -20 -20 -21 -21 -23 -24 -22 -22 -21 -19 -19 -19 -19 -18 -19 -19 -19 -19 -19 -19 -20 -20 -21 -23 -23 -25 -24 -25 -26 -27 -26 -26 -26 -25 -25 -24 -22 -23 -22 -22 -24 -23 -23 -22 -22 -22 -22
-31 -32 -34 -31 -33 -33 -35 -33 -31 -31 -31 -30 -31 -30 -32 -32 -32 -32 -32 -31 -32 -33 -33 -31 -31 -32 -31 -31 -30 -28 -28 -28 -26 -27 -22 -24 -24 -23 -21 -22 -22 -22 -22 -23 -22 -21 -21 -21 -21 -21 -21 -21 -21 -22 -22 -22 -21 -21 -21 -22 -25 -24 -27 -26 -27 -27 -27 -27 -26 -26 -26 -25 -25 -24 -24 -23 -25 -26 -25 -25 -26 -25 -25 -25 -25
-32 -31 -32 -31 -33 -32 -34 -34 -34 -32 -32 -32 -31 -30 -30 -32 -32 -31 -32 -32 -33 -33 -32 -31 -31 -31 -32 -31 -31 -28 -28 -28 -27 -28 -29 -29 -29 -25 -24 -24 -23 -22 -23 -24 -23 -24 -23 -22 -22 -21 -22 -22 -22 -22 -22 -23 -23 -23 -24 -25 -26 -25 -25 -28 -27 -26 -26 -26 -26 -26 -26 -25 -24 -25 -26 -27 -27 -26 -25 -25 -26 -26 -25 -25 -26
-33 -33 -33 -32 -32 -31 -34 -29 -32 -32 -32 -32 -32 -32 -32 -31 -33 -32 -33 -34 -35 -34 -33 -32 -32 -32 -34 -32 -31 -31 -29 -29 -28 -30 -29 -28 -25 -24 -24 -24 -25 -27 -25 -26 -25 -24 -23 -21 -23 -25 -26 -25 -25 -27 -27 -26 -24 -24 -25 -26 -26 -25 -23 -23 -24 -25 -26 -26 -27 -26 -26 -26 -27 -27 -27 -27 -27 -26 -25 -25 -25 -26 -25 -25 -26
-33 -34 -34 -32 -32 -31 -33 -32 -33 -33 -33 -32 -31 -32 -33 -33 -32 -32 -33 -33 -33 -34 -35 -33 -31 -34 -34 -33 -32 -31 -30 -29 -30 -21 -22 -21 -22 -23 -24 -24 -24 -25 -22 -21 -23 -23 -24 -26 -27 -28 -28 -27 -27 -28 -28 -28 -27 -26 -29 -29 -27 -27 -27 -30 -28 -27 -27 -27 -27 -27 -27 -27 -28 -28 -27 -28 -27 -27 -26 -26 -26 -26 -26 -26 -27
-34 -34 -32 -33 -32 -32 -32 -32 -34 -32 -33 -33 -32 -32 -25 -23 -24 -31 -31 -25 -24 -23 -22 -27 -29 -30 -29 -28 -29 -28 -29 -28 -22 -20 -20 -20 -20 -21 -21 -20 -21 -22 -21 -21 -22 -24 -27 -29 -29 -29 -29 -29 -29 -29 -29 -29 -29 -29 -29 -26 -27 -28 -28 -27 -27 -27 -27 -27 -27 -28 -29 -29 -29 -29 -29 -28 -28 -27 -26 -25 -27 -27 -27 -28 -28
-32 -33 -32 -33 -33 -35 -34 -33 -32 -32 -32 -32 -33 -31 -32 -26 -23 -22 -23 -23 -22 -21 -20 -20 -20 -20 -21 -25 -24 -21 -21 -21 -21 -20 -20 -20 -20 -21 -21 -21 -21 -21 -20 -22 -24 -27 -30 -31 -30 -29 -29 -29 -30 -30 -29 -30 -29 -30 -30 -29 -29 -29 -28 -28 -28 -27 -28 -28 -29 -29 -29 -30 -30 -29 -29 -29 -29 -29 -28 -27 -27 -28 -28 -28 -29
-34 -32 -32 -34 -32 -32 -34 -34 -34 -33 -33 -32 -32 -32 -32 -31 -29 -25 -23 -24 -23 -22 -21 -20 -19 -19 -19 -20 -21 -24 -21 -20 -21 -20 -20 -20 -20 -21 -21 -21 -20 -20 -21 -21 -25 -28 -31 -31 -30 -30 -30 -30 -30 -29 -30 -30 -30 -30 -30 -30 -30 -29 -29 -30 -29 -30 -30 -30 -31 -30 -30 -30 -29 -29 -29 -29 -29 -29 -30 -30 -30 -30 -29 -29 -29
-37 -36 -36 -35 -34 -32 -33 -33 -32 -33 -34 -33 -33 -32 -33 -33 -31 -30 -27 -26 -25 -24 -22 -21 -20 -20 -19 -19 -19 -19 -19 -19 -20 -20 -20 -21 -21 -21 -21 -20 -20 -21 -21 -24 -30 -30 -31 -31 -31 -31 -31 -31 -30 -30 -30 -31 -30 -30 -30 -30 -31 -30 -30 -30 -29 -30 -30 -30 -30 -30 -30 -30 -30 -30 -29 -30 -30 -31 -31 -31 -31 -30 -30 -30 -30
-36 -36 -35 -36 -36 -35 -34 -33 -33 -33 -33 -33 -33 -33 -32 -32 -31 -31 -30 -30 -29 -27 -27 -26 -25 -24 -23 -22 -22 -21 -21 -21 -21 -22 -22 -21 -20 -20 -21 -22 -21 -21 -23 -26 -30 -31 -31 -31 -30 -30 -31 -30 -30 -30 -30 -30 -30 -30 -30 -30 -30 -30 -30 -30 -31 -30 -30 -30 -30 -30 -30 -30 -30 -31 -31 -31 -31 -31 -32 -31 -31 -31 -32 -32 -32
-36 -32 -31 -34 -36 -35 -34 -33 -33 -33 -33 -33 -33 -32 -32 -32 -32 -32 -33 -32 -31 -31 -31 -29 -26 -26 -25 -23 -23 -24 -24 -23 -23 -23 -22 -21 -21 -21 -21 -25 -28 -29 -28 -32 -31 -31 -30 -30 -30 -30 -30 -30 -30 -30 -30 -31 -30 -30 -30 -30 -30 -30 -30 -30 -30 -30 -30 -30 -31 -31 -30 -30 -31 -30 -31 -31 -32 -32 -32 -32 -32 -32 -32 -32 -32
-37 -35 -35 -33 -34 -34 -34 -32 -33 -32 -33 -33 -32 -32 -31 -32 -31 -32 -30 -30 -31 -31 -31 -30 -29 -24 -27 -26 -25 -24 -24 -23 -23 -23 -22 -21 -21 -21 -26 -30 -31 -30 -30 -31 -31 -29 -29 -29 -29 -29 -29 -30 -29 -30 -30 -30 -30 -30 -29 -30 -30 -30 -30 -30 -30 -30 -30 -30 -30 -30 -29 -30 -30 -31 -31 -31 -32 -32 -32 -32 -32 -31 -31 -31 -31
-35 -35 -34 -33 -32 -32 -33 -33 -33 -32 -28 -30 -32 -32 -31 -30 -30 -30 -31 -31 -31 -31 -30 -30 -30 -30 -27 -26 -25 -24 -23 -24 -24 -24 -23 -22 -21 -23 -28 -30 -30 -30 -30 -30 -30 -29 -29 -29 -29 -29 -29 -29 -29 -29 -29 -29 -29 -30 -28 -28 -29 -29 -30 -30 -29 -29 -29 -29 -29 -30 -31 -31 -31 -31 -31 -32 -31 -31 -31 -31 -31 -31 -30 -30 -29
-36 -35 -35 -36 -36 -34 -34 -33 -31 -28 -29 -31 -31 -31 -30 -30 -30 -31 -31 -31 -30 -30 -31 -31 -27 -30 -31 -30 -27 -26 -29 -25 -26 -26 -26 -25 -25 -31 -31 -30 -30 -30 -30 -30 -30 -30 -29 -29 -29 -29 -29 -29 -29 -29 -29 -29 -29 -29 -29 -29 -28 -29 -27 -27 -28 -29 -29 -30 -30 -30 -29 -29 -29 -29 -29 -30 -30 -31 -31 -31 -31 -31 -31 -30 -30
-35 -32 -30 -30 -30 -35 -35 -33 -32 -32 -32 -31 -31 -31 -31 -31 -32 -31 -31 -31 -31 -31 -31 -31 -31 -31 -30 -29 -31 -29 -29 -32 -34 -31 -30 -30 -29 -29 -30 -30 -29 -29 -29 -29 -29 -29 -29 -29 -29 -28 -28 -28 -28 -28 -28 -28 -28 -28 -28 -28 -28 -28 -28 -29 -29 -29 -29 -29 -28 -28 -28 -28 -28 -28 -29 -29 -30 -30 -30 -30 -30 -31 -31 -31 -31
-31 -31 -30 -29 -32 -31 -32 -31 -31 -32 -31 -32 -31 -31 -32 -32 -32 -32 -32 -32 -32 -32 -31 -31 -31 -31 -30 -31 -32 -33 -32 -31 -32 -31 -31 -30 -30 -30 -30 -30 -30 -30 -30 -30 -29 -29 -29 -29 -28 -28 -28 -28 -28 -28 -28 -28 -28 -27 -28 -27 -28 -28 -28 -28 -28 -28 -28 -28 -28 -27 -27 -28 -28 -28 -28 -28 -29 -29 -29 -29 -29 -29 -29 -30 -30
-32 -30 -30 -29 -30 -31 -31 -31 -31 -31 -32 -30 -30 -32 -32 -32 -32 -32 -32 -32 -32 -31 -31 -31 -31 -30 -29 -27 -27 -26 -29 -30 -31 -31 -31 -30 -30 -30 -30 -30 -29 -29 -29 -29 -29 -28 -28 -28 -28 -28 -28 -28 -27 -27 -27 -27 -27 -27 -27 -27 -27 -27 -27 -27 -27 -27 -27 -27 -27 -27 -27 -27 -27 -27 -28 -28 -25 -26 -27 -27 -28 -28 -28 -29 -29
-33 -32 -32 -31 -29 -30 -31 -31 -30 -29 -30 -30 -31 -31 -31 -31 -31 -31 -31 -31 -31 -31 -31 -31 -31 -30 -28 -27 -26 -25 -26 -29 -30 -30 -30 -30 -30 -30 -29 -29 -29 -29 -28 -28 -28 -28 -28 -28 -28 -28 -28 -28 -27 -27 -27 -27 -27 -27 -27 -27 -27 -27 -27 -27 -27 -27 -27 -26 -27 -27 -26 -26 -26 -26 -26 -24 -26 -27 -27 -28 -28 -28 -28 -28 -28
-32 -32 -32 -32 -32 -31 -30 -30 -30 -31 -31 -31 -30 -30 -30 -30 -31 -31 -31 -31 -31 -31 -31 -31 -30 -30 -29 -28 -27 -27 -28 -30 -30 -30 -30 -30 -30 -29 -29 -29 -28 -28 -28 -27 -27 -27 -27 -27 -27 -27 -27 -27 -27 -27 -27 -27 -26 -26 -26 -27 -26 -27 -27 -26 -26 -26 -26 -26 -26 -26 -26 -26 -26 -26 -27 -26 -26 -27 -27 -27 -27 -28 -28 -28 -28
-32 -32 -31 -31 -30 -30 -29 -31 -30 -30 -31 -30 -30 -30 -30 -32 -31 -32 -31 -31 -31 -31 -31 -30 -30 -30 -30 -29 -28 -29 -30 -30 -30 -30 -30 -29 -29 -29 -28 -28 -28 -27 -27 -27 -27 -26 -27 -27 -27 -27 -27 -26 -26 -27 -26 -26 -25 -26 -26 -26 -26 -26 -26 -26 -26 -26 -25 -25 -25 -25 -25 -25 -26 -26 -26 -26 -26 -27 -27 -27 -27 -27 -27 -28 -28
-33 -32 -32 -31 -31 -30 -30 -30 -30 -30 -29 -30 -31 -30 -30 -31 -31 -31 -31 -31 -30 -30 -30 -30 -30 -30 -30 -30 -30 -30 -30 -29 -29 -29 -29 -29 -29 -29 -29 -28 -28 -28 -27 -27 -26 -27 -27 -27 -27 -27 -27 -26 -26 -26 -26 -25 -25 -25 -25 -25 -26 -25 -26 -26 -25 -24 -23 -24 -24 -24 -25 -25 -26 -26 -26 -26 -26 -26 -26 -27 -27 -26 -27 -27 -27
-30 -30 -30 -30 -30 -30 -29 -30 -29 -29 -30 -30 -30 -30 -30 -29 -29 -30 -30 -29 -29 -29 -30 -29 -29 -30 -30 -30 -29 -29 -29 -29 -29 -29 -29 -29 -28 -28 -28 -28 -27 -27 -27 -26 -26 -27 -27 -27 -27 -27 -27 -27 -26 -26 -25 -25 -25 -25 -25 -25 -25 -24 -24 -23 -22 -22 -22 -23 -23 -24 -25 -25 -25 -25 -25 -25 -25 -26 -26 -26 -26 -26 -26 -26 -27
-31 -30 -29 -29 -30 -29 -30 -29 -30 -29 -30 -29 -29 -30 -29 -29 -29 -29 -29 -29 -29 -29 -29 -29 -30 -30 -30 -30 -29 -29 -29 -29 -29 -29 -29 -29 -29 -28 -28 -28 -28 -28 -27 -27 -27 -27 -27 -27 -27 -27 -27 -26 -26 -26 -26 -25 -25 -25 -24 -24 -23 -23 -23 -22 -22 -22 -22 -22 -22 -23 -24 -25 -25 -25 -25 -25 -25 -26 -26 -26 -26 -26 -26 -26 -26
-30 -29 -29 -29 -29 -29 -29 -30 -29 -30 -30 -30 -30 -30 -30 -29 -29 -29 -29 -29 -29 -29 -29 -29 -29 -29 -29 -29 -29 -29 -28 -28 -28 -28 -28 -28 -28 -28 -28 -28 -28 -28 -27 -27 -27 -27 -26 -26 -27 -27 -26 -26 -26 -26 -26 -26 -25 -25 -25 -24 -23 -23 -23 -22 -22 -21 -21 -22 -22 -23 -23 -24 -24 -25 -25 -25 -25 -25 -26 -26 -25 -25 -25 -25 -25
-29 -29 -28 -28 -28 -28 -29 -29 -29 -29 -29 -29 -29 -29 -29 -29 -29 -29 -29 -29 -29 -29 -28 -29 -29 -28 -28 -28 -28 -28 -28 -28 -28 -28 -28 -28 -27 -27 -27 -27 -27 -27 -27 -27 -27 -27 -27 -27 -27 -26 -27 -26 -26 -26 -26 -26 -26 -25 -25 -24 -24 -23 -22 -21 -21 -21 -21 -21 -22 -22 -23 -24 -25 -25 -25 -25 -25 -25 -25 -25 -25 -25 -25 -25 -25
-28 -28 -28 -28 -28 -28 -28 -28 -28 -28 -28 -28 -28 -28 -28 -28 -28 -28 -28 -28 -28 -28 -28 -28 -28 -28 -28 -28 -28 -28 -28 -28 -28 -28 -28 -27 -27 -27 -27 -27 -27 -27 -27 -27 -27 -27 -27 -27 -27 -27 -27 -27 -27 -26 -26 -26 -26 -25 -25 -24 -23 -22 -22 -21 -21 -21 -21 -22 -22 -23 -24 -24 -25 -25 -25 -25 -24 -24 -24 -24 -24 -24 -24 -25 -25
-27 -27 -27 -28 -28 -28 -28 -28 -28 -28 -28 -28 -28 -28 -28 -28 -28 -28 -28 -28 -28 -28 -28 -28 -28 -28 -28 -27 -28 -28 -28 -28 -28 -28 -28 -28 -28 -27 -27 -28 -27 -28 -28 -28 -27 -27 -27 -27 -27 -27 -27 -26 -26 -26 -26 -26 -25 -25 -24 -23 -23 -22 -22 -22 -21 -21 -20 -21 -22 -23 -24 -24 -25 -25 -25 -24 -24 -24 -23 -23 -24 -24 -25 -25 -25